| time (UTC) | temp F | wind direction | speed MPH | gust MPH | rain 1hr in | rain 24hr in | rain mn in | humidity % | barometer mb |
| 20260502170448 | 63 | 47 | 3.0 | 3.0 | 0.00 | 0.00 | 0.00 | 37 | 1022.1 |
| 20260502163931 | 61 | 87 | 3.0 | 6.0 | 0.00 | 0.00 | 0.00 | 40 | 1022.5 |
| 20260502163427 | 60 | 112 | 3.0 | 8.0 | 0.00 | 0.00 | 0.00 | 39 | 1022.6 |
| 20260502162925 | 61 | 70 | 8.0 | 10.0 | 0.00 | 0.00 | 0.00 | 40 | 1022.4 |
| 20260502162422 | 59 | 113 | 1.0 | 3.0 | 0.00 | 0.00 | 0.00 | 42 | 1022.4 |
| 20260502161919 | 59 | 97 | 5.0 | 8.0 | 0.00 | 0.00 | 0.00 | 41 | 1022.6 |
| 20260502161415 | 61 | 91 | 2.0 | 5.0 | 0.00 | 0.00 | 0.00 | 41 | 1022.4 |
| 20260502160913 | 60 | 170 | 1.0 | 3.0 | 0.00 | 0.00 | 0.00 | 44 | 1022.4 |
| 20260502160411 | 59 | 122 | 4.0 | 7.0 | 0.00 | 0.00 | 0.00 | 42 | 1022.3 |
| 20260502151850 | 56 | 133 | 3.0 | 6.0 | 0.00 | 0.00 | 0.00 | 45 | 1022.6 |
| 20260502151346 | 56 | 112 | 5.0 | 9.0 | 0.00 | 0.00 | 0.00 | 44 | 1022.7 |
| 20260502150843 | 56 | 126 | 7.0 | 8.0 | 0.00 | 0.00 | 0.00 | 43 | 1022.6 |
| 20260502150340 | 55 | 123 | 3.0 | 9.0 | 0.00 | 0.00 | 0.00 | 43 | 1022.8 |
| 20260502130728 | 46 | 104 | 0.0 | 1.0 | 0.00 | 0.00 | 0.00 | 73 | 1022.4 |
| 20260502130226 | 45 | 105 | 0.0 | 3.0 | 0.00 | 0.00 | 0.00 | 75 | 1022.0 |
| 20260502123712 | 42 | 96 | 0.0 | 2.0 | 0.00 | 0.00 | 0.00 | 81 | 1021.9 |
| 20260502123208 | 42 | 96 | 1.0 | 2.0 | 0.00 | 0.00 | 0.00 | 81 | 1021.8 |
| 20260502122704 | 42 | 103 | 1.0 | 2.0 | 0.00 | 0.00 | 0.00 | 82 | 1021.6 |
| 20260502122201 | 42 | 92 | 1.0 | 3.0 | 0.00 | 0.00 | 0.00 | 83 | 1021.6 |
| 20260502121700 | 41 | 83 | 0.0 | 0.0 | 0.00 | 0.00 | 0.00 | 85 | 1021.2 |
| 20260502121157 | 41 | 70 | 1.0 | 3.0 | 0.00 | 0.00 | 0.00 | 86 | 1021.3 |
| 20260502120653 | 40 | 86 | 1.0 | 2.0 | 0.00 | 0.00 | 0.00 | 87 | 1021.2 |
| 20260502120150 | 40 | 88 | 0.0 | 1.0 | 0.00 | 0.00 | 0.00 | 87 | 1021.2 |
| 20260502115648 | 40 | 83 | 1.0 | 2.0 | 0.00 | 0.00 | 0.00 | 88 | 1021.1 |
| 20260502115143 | 40 | 95 | 1.0 | 2.0 | 0.00 | 0.00 | 0.00 | 88 | 1021.0 |
| 20260502114640 | 40 | 102 | 0.0 | 1.0 | 0.00 | 0.00 | 0.00 | 88 | 1021.2 |
| 20260502114138 | 40 | 102 | 0.0 | 1.0 | 0.00 | 0.00 | 0.00 | 88 | 1021.1 |
| 20260502113635 | 40 | 102 | 1.0 | 1.0 | 0.00 | 0.00 | 0.00 | 88 | 1021.0 |
| 20260502113133 | 40 | 101 | 0.0 | 0.0 | 0.00 | 0.00 | 0.00 | 88 | 1020.9 |
| 20260502112631 | 40 | 99 | 0.0 | 1.0 | 0.00 | 0.00 | 0.00 | 88 | 1020.8 |
| 20260502112127 | 41 | 97 | 0.0 | 2.0 | 0.00 | 0.00 | 0.00 | 88 | 1020.7 |
| 20260502111625 | 41 | 95 | 0.0 | 0.0 | 0.00 | 0.00 | 0.00 | 87 | 1020.8 |
| 20260502111122 | 41 | 90 | 0.0 | 1.0 | 0.00 | 0.00 | 0.00 | 87 | 1020.8 |
| 20260502110620 | 41 | 92 | 0.0 | 1.0 | 0.00 | 0.00 | 0.00 | 87 | 1020.6 |
| 20260502110117 | 42 | 92 | 0.0 | 1.0 | 0.00 | 0.00 | 0.00 | 87 | 1020.6 |
| 20260502105615 | 42 | 81 | 0.0 | 2.0 | 0.00 | 0.00 | 0.00 | 87 | 1020.7 |
| 20260502105112 | 42 | 92 | 1.0 | 1.0 | 0.00 | 0.00 | 0.00 | 86 | 1020.6 |
| 20260502104609 | 42 | 107 | 0.0 | 0.0 | 0.00 | 0.00 | 0.00 | 86 | 1020.7 |
| 20260502104106 | 42 | 108 | 0.0 | 0.0 | 0.00 | 0.00 | 0.00 | 86 | 1020.6 |
| 20260502103604 | 43 | 104 | 0.0 | 1.0 | 0.00 | 0.00 | 0.00 | 86 | 1020.7 |
| 20260502103102 | 43 | 99 | 0.0 | 0.0 | 0.00 | 0.00 | 0.00 | 86 | 1020.4 |
| 20260502102558 | 43 | 100 | 0.0 | 2.0 | 0.00 | 0.00 | 0.00 | 85 | 1020.4 |
| 20260502102055 | 43 | 103 | 0.0 | 1.0 | 0.00 | 0.00 | 0.00 | 85 | 1020.7 |
| 20260502101553 | 43 | 98 | 0.0 | 0.0 | 0.00 | 0.00 | 0.00 | 85 | 1020.7 |
| 20260502101051 | 44 | 97 | 0.0 | 2.0 | 0.00 | 0.00 | 0.00 | 84 | 1020.4 |
| 20260502100549 | 44 | 101 | 0.0 | 0.0 | 0.00 | 0.00 | 0.00 | 84 | 1020.3 |
| 20260502091524 | 45 | 109 | 0.0 | 0.0 | 0.00 | 0.00 | 0.00 | 86 | 1020.3 |
| 20260502091021 | 45 | 108 | 0.0 | 0.0 | 0.00 | 0.00 | 0.00 | 87 | 1020.0 |
| 20260502090518 | 45 | 107 | 0.0 | 1.0 | 0.00 | 0.00 | 0.00 | 88 | 1019.9 |
| 20260502071412 | 45 | 135 | 0.0 | 0.0 | 0.00 | 0.00 | 0.00 | 90 | 1019.8 |
| 20260502070911 | 45 | 135 | 0.0 | 0.0 | 0.00 | 0.00 | 0.00 | 90 | 1019.8 |
| 20260502070408 | 45 | 135 | 0.0 | 0.0 | 0.00 | 0.00 | 0.00 | 90 | 1019.7 |
| 20260502065907 | 45 | 134 | 0.0 | 0.0 | 0.00 | 0.00 | 0.00 | 90 | 1019.8 |
| 20260502065405 | 45 | 134 | 0.0 | 0.0 | 0.00 | 0.00 | 0.00 | 90 | 1019.8 |
| 20260502064903 | 45 | 134 | 0.0 | 0.0 | 0.00 | 0.00 | 0.00 | 89 | 1019.8 |
| 20260502064400 | 45 | 134 | 0.0 | 0.0 | 0.00 | 0.00 | 0.00 | 89 | 1019.7 |
| 20260502063857 | 45 | 134 | 0.0 | 0.0 | 0.00 | 0.00 | 0.00 | 89 | 1019.8 |
| 20260502063355 | 45 | 134 | 0.0 | 0.0 | 0.00 | 0.00 | 0.00 | 88 | 1019.8 |
| 20260502062852 | 45 | 134 | 0.0 | 0.0 | 0.00 | 0.00 | 0.00 | 88 | 1019.7 |
| 20260502062349 | 46 | 135 | 0.0 | 0.0 | 0.00 | 0.00 | 0.00 | 88 | 1019.5 |
| 20260502061848 | 46 | 135 | 0.0 | 0.0 | 0.00 | 0.00 | 0.00 | 88 | 1019.9 |
| 20260502061345 | 46 | 135 | 0.0 | 0.0 | 0.00 | 0.00 | 0.00 | 87 | 1019.5 |
| 20260502060841 | 46 | 135 | 0.0 | 0.0 | 0.00 | 0.00 | 0.00 | 87 | 1019.5 |
| 20260502060336 | 47 | 135 | 0.0 | 0.0 | 0.00 | 0.00 | 0.00 | 87 | 1019.9 |
| 20260502055834 | 47 | 135 | 0.0 | 0.0 | 0.00 | 0.00 | 0.00 | 86 | 1019.7 |
| 20260502055332 | 47 | 135 | 0.0 | 0.0 | 0.00 | 0.00 | 0.00 | 86 | 1019.9 |
| 20260502054831 | 47 | 135 | 0.0 | 0.0 | 0.00 | 0.00 | 0.00 | 86 | 1020.1 |
| 20260502054328 | 47 | 135 | 0.0 | 0.0 | 0.00 | 0.00 | 0.00 | 86 | 1020.0 |
| 20260502053826 | 47 | 135 | 0.0 | 0.0 | 0.00 | 0.00 | 0.00 | 86 | 1019.9 |
| 20260502053323 | 47 | 134 | 0.0 | 0.0 | 0.00 | 0.00 | 0.00 | 86 | 1019.9 |
| 20260502052820 | 47 | 135 | 0.0 | 0.0 | 0.00 | 0.00 | 0.00 | 86 | 1019.5 |
| 20260502052318 | 47 | 134 | 0.0 | 0.0 | 0.00 | 0.00 | 0.00 | 87 | 1019.9 |
| 20260502051816 | 47 | 134 | 0.0 | 0.0 | 0.00 | 0.00 | 0.00 | 87 | 1019.9 |
| 20260502051315 | 47 | 134 | 0.0 | 0.0 | 0.00 | 0.00 | 0.00 | 87 | 1019.9 |
| 20260502050810 | 46 | 132 | 0.0 | 0.0 | 0.00 | 0.00 | 0.00 | 87 | 1020.1 |
| 20260502050307 | 46 | 132 | 0.0 | 0.0 | 0.00 | 0.00 | 0.00 | 87 | 1020.0 |
| 20260502045804 | 46 | 131 | 0.0 | 0.0 | 0.00 | 0.00 | 0.00 | 87 | 1020.0 |
| 20260502045300 | 46 | 131 | 0.0 | 0.0 | 0.00 | 0.00 | 0.00 | 87 | 1020.1 |
| 20260502044758 | 46 | 131 | 0.0 | 0.0 | 0.00 | 0.00 | 0.00 | 86 | 1019.9 |
| 20260502044254 | 46 | 131 | 0.0 | 0.0 | 0.00 | 0.00 | 0.00 | 86 | 1020.1 |
| 20260502043751 | 46 | 131 | 0.0 | 0.0 | 0.00 | 0.00 | 0.00 | 86 | 1019.9 |
| 20260502043249 | 46 | 131 | 0.0 | 0.0 | 0.00 | 0.00 | 0.00 | 85 | 1019.8 |
| 20260502042748 | 46 | 130 | 0.0 | 0.0 | 0.00 | 0.00 | 0.00 | 85 | 1019.9 |
| 20260502042245 | 47 | 130 | 0.0 | 0.0 | 0.00 | 0.00 | 0.00 | 84 | 1019.9 |
| 20260502041743 | 47 | 130 | 0.0 | 0.0 | 0.00 | 0.00 | 0.00 | 84 | 1019.8 |
| 20260502041240 | 47 | 130 | 0.0 | 0.0 | 0.00 | 0.00 | 0.00 | 84 | 1019.9 |
| 20260502040737 | 47 | 130 | 0.0 | 0.0 | 0.00 | 0.00 | 0.00 | 84 | 1019.8 |
| 20260502040234 | 47 | 129 | 0.0 | 0.0 | 0.00 | 0.00 | 0.00 | 83 | 1019.6 |
| 20260502035730 | 47 | 128 | 0.0 | 0.0 | 0.00 | 0.00 | 0.00 | 82 | 1019.5 |
| 20260502035227 | 47 | 128 | 0.0 | 0.0 | 0.00 | 0.00 | 0.00 | 82 | 1019.6 |
| 20260502034724 | 47 | 128 | 0.0 | 0.0 | 0.00 | 0.00 | 0.00 | 82 | 1019.2 |
| 20260502034222 | 47 | 127 | 0.0 | 0.0 | 0.00 | 0.00 | 0.00 | 80 | 1019.4 |
| 20260502033720 | 48 | 127 | 0.0 | 0.0 | 0.00 | 0.00 | 0.00 | 80 | 1019.4 |
| 20260502033218 | 48 | 126 | 0.0 | 0.0 | 0.00 | 0.00 | 0.00 | 80 | 1019.4 |
| 20260502032714 | 48 | 126 | 0.0 | 1.0 | 0.00 | 0.00 | 0.00 | 80 | 1019.2 |
| 20260502032210 | 48 | 127 | 0.0 | 0.0 | 0.00 | 0.00 | 0.00 | 80 | 1019.2 |
| 20260502031708 | 49 | 124 | 0.0 | 0.0 | 0.00 | 0.00 | 0.00 | 79 | 1019.1 |
| 20260502031206 | 49 | 122 | 0.0 | 0.0 | 0.00 | 0.00 | 0.00 | 78 | 1019.1 |
| 20260502030705 | 50 | 122 | 0.0 | 0.0 | 0.00 | 0.00 | 0.00 | 77 | 1018.7 |
| 20260502030202 | 50 | 121 | 0.0 | 0.0 | 0.00 | 0.00 | 0.00 | 77 | 1018.9 |
| 20260502025659 | 50 | 121 | 0.0 | 0.0 | 0.00 | 0.00 | 0.00 | 77 | 1018.6 |
| 20260502025157 | 50 | 115 | 0.0 | 0.0 | 0.00 | 0.00 | 0.00 | 76 | 1018.6 |
| 20260502024654 | 51 | 108 | 0.0 | 1.0 | 0.00 | 0.00 | 0.00 | 75 | 1018.6 |
| 20260502024153 | 51 | 117 | 0.0 | 1.0 | 0.00 | 0.00 | 0.00 | 75 | 1018.3 |
| 20260502023650 | 51 | 118 | 1.0 | 1.0 | 0.00 | 0.00 | 0.00 | 75 | 1018.4 |
| 20260502023147 | 51 | 115 | 0.0 | 0.0 | 0.00 | 0.00 | 0.00 | 74 | 1018.3 |
| 20260502022644 | 52 | 115 | 0.0 | 0.0 | 0.00 | 0.00 | 0.00 | 74 | 1018.3 |
| 20260502022141 | 52 | 104 | 1.0 | 2.0 | 0.00 | 0.00 | 0.00 | 73 | 1018.4 |
| 20260502021639 | 52 | 107 | 0.0 | 1.0 | 0.00 | 0.00 | 0.00 | 73 | 1018.2 |
| 20260502021135 | 53 | 95 | 0.0 | 5.0 | 0.00 | 0.00 | 0.00 | 72 | 1017.8 |
| 20260502020633 | 53 | 96 | 0.0 | 2.0 | 0.00 | 0.00 | 0.00 | 71 | 1018.1 |
| 20260502020129 | 53 | 106 | 0.0 | 2.0 | 0.00 | 0.00 | 0.00 | 72 | 1017.8 |
| 20260502015628 | 54 | 92 | 0.0 | 3.0 | 0.00 | 0.00 | 0.00 | 70 | 1017.7 |
| 20260502015123 | 55 | 86 | 0.0 | 0.0 | 0.00 | 0.00 | 0.00 | 69 | 1017.8 |
| 20260502014621 | 55 | 95 | 0.0 | 0.0 | 0.00 | 0.00 | 0.00 | 68 | 1017.7 |
| 20260502014118 | 55 | 111 | 0.0 | 0.0 | 0.00 | 0.00 | 0.00 | 67 | 1017.6 |
| 20260502013614 | 55 | 105 | 0.0 | 5.0 | 0.00 | 0.00 | 0.00 | 67 | 1017.7 |
| 20260502013109 | 56 | 95 | 1.0 | 5.0 | 0.00 | 0.00 | 0.00 | 66 | 1017.7 |
| 20260502012608 | 57 | 103 | 3.0 | 5.0 | 0.00 | 0.00 | 0.00 | 65 | 1017.7 |
| 20260502012106 | 57 | 117 | 0.0 | 2.0 | 0.00 | 0.00 | 0.00 | 64 | 1017.9 |
| 20260502011602 | 57 | 114 | 0.0 | 2.0 | 0.00 | 0.00 | 0.00 | 64 | 1017.7 |
| 20260502011057 | 57 | 84 | 0.0 | 2.0 | 0.00 | 0.00 | 0.00 | 64 | 1017.7 |
| 20260502010555 | 57 | 81 | 6.0 | 7.0 | 0.00 | 0.00 | 0.00 | 64 | 1017.5 |
| 20260502010051 | 57 | 85 | 1.0 | 5.0 | 0.00 | 0.00 | 0.00 | 64 | 1017.5 |
| 20260502005549 | 57 | 93 | 1.0 | 7.0 | 0.00 | 0.00 | 0.00 | 64 | 1017.4 |
| 20260502005047 | 57 | 89 | 2.0 | 8.0 | 0.00 | 0.00 | 0.00 | 63 | 1017.4 |
| 20260502004542 | 57 | 84 | 1.0 | 5.0 | 0.00 | 0.00 | 0.00 | 62 | 1017.2 |
| 20260502004039 | 58 | 80 | 2.0 | 6.0 | 0.00 | 0.00 | 0.00 | 62 | 1017.2 |
| 20260502003537 | 58 | 79 | 2.0 | 9.0 | 0.00 | 0.00 | 0.00 | 62 | 1017.1 |
| 20260502003034 | 58 | 93 | 3.0 | 6.0 | 0.00 | 0.00 | 0.00 | 63 | 1017.3 |
| 20260502002530 | 58 | 103 | 0.0 | 8.0 | 0.00 | 0.00 | 0.00 | 63 | 1017.5 |
| 20260502002027 | 58 | 83 | 0.0 | 6.0 | 0.00 | 0.00 | 0.00 | 63 | 1017.3 |
| 20260502001525 | 58 | 77 | 1.0 | 7.0 | 0.00 | 0.00 | 0.00 | 63 | 1017.1 |
| 20260502001022 | 58 | 82 | 5.0 | 8.0 | 0.00 | 0.00 | 0.00 | 64 | 1017.1 |
| 20260502000521 | 58 | 94 | 3.0 | 6.0 | 0.00 | 0.00 | 0.00 | 64 | 1016.7 |
| 20260502000017 | 58 | 89 | 3.0 | 6.0 | 0.00 | 0.00 | 0.00 | 63 | 1016.5 |
| 20260501235513 | 58 | 76 | 2.0 | 8.0 | 0.00 | 0.00 | 0.00 | 63 | 1016.7 |
| 20260501235009 | 59 | 90 | 6.0 | 7.0 | 0.00 | 0.00 | 0.00 | 62 | 1016.5 |
| 20260501234504 | 59 | 106 | 2.0 | 6.0 | 0.00 | 0.00 | 0.00 | 61 | 1016.6 |
| 20260501234003 | 59 | 103 | 6.0 | 9.0 | 0.00 | 0.00 | 0.00 | 61 | 1016.4 |
| 20260501233501 | 60 | 157 | 7.0 | 9.0 | 0.00 | 0.00 | 0.00 | 60 | 1016.7 |
| 20260501232956 | 59 | 102 | 0.0 | 2.0 | 0.00 | 0.00 | 0.00 | 62 | 1016.6 |
| 20260501232453 | 59 | 102 | 0.0 | 2.0 | 0.00 | 0.00 | 0.00 | 62 | 1016.6 |
| 20260501231950 | 58 | 99 | 2.0 | 6.0 | 0.00 | 0.00 | 0.00 | 63 | 1016.9 |
| 20260501231449 | 58 | 79 | 6.0 | 8.0 | 0.00 | 0.00 | 0.00 | 66 | 1016.6 |
| 20260501230946 | 58 | 92 | 5.0 | 9.0 | 0.00 | 0.00 | 0.00 | 66 | 1016.6 |
| 20260501230445 | 58 | 65 | 5.0 | 8.0 | 0.00 | 0.00 | 0.00 | 66 | 1016.6 |
| 20260501225943 | 58 | 117 | 5.0 | 9.0 | 0.00 | 0.00 | 0.00 | 66 | 1016.6 |
| 20260501225440 | 58 | 87 | 2.0 | 9.0 | 0.00 | 0.00 | 0.00 | 65 | 1016.8 |
| 20260501224936 | 59 | 61 | 3.0 | 11.0 | 0.00 | 0.00 | 0.00 | 63 | 1016.6 |
| 20260501224433 | 60 | 77 | 2.0 | 8.0 | 0.00 | 0.00 | 0.00 | 56 | 1016.9 |
| 20260501223930 | 60 | 67 | 2.0 | 6.0 | 0.00 | 0.00 | 0.00 | 55 | 1016.9 |
| 20260501223426 | 61 | 77 | 0.0 | 9.0 | 0.00 | 0.00 | 0.00 | 55 | 1016.6 |
| 20260501222922 | 64 | 39 | 3.0 | 9.0 | 0.00 | 0.00 | 0.00 | 47 | 1016.4 |
| 20260501222420 | 65 | 135 | 0.0 | 0.0 | 0.00 | 0.00 | 0.00 | 35 | 1016.0 |
| 20260501221916 | 65 | 150 | 0.0 | 1.0 | 0.00 | 0.00 | 0.00 | 34 | 1016.1 |
| 20260501221413 | 66 | 144 | 0.0 | 1.0 | 0.00 | 0.00 | 0.00 | 35 | 1016.0 |
| 20260501220911 | 66 | 158 | 0.0 | 1.0 | 0.00 | 0.00 | 0.00 | 34 | 1016.0 |
| 20260501220408 | 66 | 174 | 0.0 | 1.0 | 0.00 | 0.00 | 0.00 | 35 | 1016.2 |
| 20260501215904 | 67 | 241 | 3.0 | 3.0 | 0.00 | 0.00 | 0.00 | 34 | 1016.1 |
| 20260501215401 | 68 | 311 | 3.0 | 3.0 | 0.00 | 0.00 | 0.00 | 32 | 1016.1 |
| 20260501214856 | 69 | 253 | 1.0 | 5.0 | 0.00 | 0.00 | 0.00 | 31 | 1016.1 |
| 20260501214352 | 70 | 191 | 1.0 | 7.0 | 0.00 | 0.00 | 0.00 | 31 | 1016.3 |
| 20260501213848 | 70 | 140 | 0.0 | 2.0 | 0.00 | 0.00 | 0.00 | 30 | 1016.4 |
| 20260501213345 | 69 | 209 | 1.0 | 2.0 | 0.00 | 0.00 | 0.00 | 32 | 1016.4 |
| 20260501212840 | 68 | 210 | 1.0 | 3.0 | 0.00 | 0.00 | 0.00 | 32 | 1016.5 |
| 20260501212337 | 67 | 240 | 4.0 | 8.0 | 0.00 | 0.00 | 0.00 | 32 | 1016.5 |
| 20260501211834 | 66 | 294 | 0.0 | 2.0 | 0.00 | 0.00 | 0.00 | 34 | 1016.5 |
| 20260501211332 | 66 | 239 | 1.0 | 1.0 | 0.00 | 0.00 | 0.00 | 36 | 1016.9 |
| 20260501210829 | 66 | 316 | 4.0 | 8.0 | 0.00 | 0.00 | 0.00 | 34 | 1016.8 |
| 20260501210326 | 66 | 285 | 4.0 | 6.0 | 0.00 | 0.00 | 0.00 | 35 | 1016.8 |
| 20260501205822 | 65 | 273 | 3.0 | 5.0 | 0.00 | 0.00 | 0.00 | 36 | 1016.9 |
| 20260501205319 | 65 | 279 | 3.0 | 9.0 | 0.00 | 0.00 | 0.00 | 35 | 1017.2 |
| 20260501204816 | 65 | 309 | 1.0 | 5.0 | 0.00 | 0.00 | 0.00 | 35 | 1017.4 |
| 20260501204312 | 65 | 275 | 0.0 | 3.0 | 0.00 | 0.00 | 0.00 | 35 | 1017.2 |
| 20260501203809 | 65 | 267 | 0.0 | 8.0 | 0.00 | 0.00 | 0.00 | 34 | 1017.2 |
| 20260501203306 | 65 | 276 | 0.0 | 3.0 | 0.00 | 0.00 | 0.00 | 34 | 1017.1 |
| 20260501202803 | 65 | 234 | 0.0 | 5.0 | 0.00 | 0.00 | 0.00 | 34 | 1017.3 |
| 20260501202300 | 66 | 270 | 1.0 | 5.0 | 0.00 | 0.00 | 0.00 | 33 | 1017.1 |
| 20260501201757 | 66 | 292 | 3.0 | 9.0 | 0.00 | 0.00 | 0.00 | 32 | 1017.3 |
| 20260501201253 | 68 | 275 | 1.0 | 5.0 | 0.00 | 0.00 | 0.00 | 31 | 1017.2 |
| 20260501200750 | 69 | 251 | 4.0 | 8.0 | 0.00 | 0.00 | 0.00 | 31 | 1017.6 |
| 20260501200247 | 69 | 285 | 0.0 | 8.0 | 0.00 | 0.00 | 0.00 | 31 | 1017.5 |
| 20260501195745 | 69 | 280 | 6.0 | 8.0 | 0.00 | 0.00 | 0.00 | 32 | 1017.6 |
| 20260501195241 | 70 | 273 | 5.0 | 7.0 | 0.00 | 0.00 | 0.00 | 30 | 1017.7 |
| 20260501194737 | 71 | 166 | 2.0 | 5.0 | 0.00 | 0.00 | 0.00 | 32 | 1017.5 |
| 20260501194233 | 70 | 227 | 2.0 | 5.0 | 0.00 | 0.00 | 0.00 | 33 | 1017.7 |
| 20260501193729 | 69 | 69 | 1.0 | 3.0 | 0.00 | 0.00 | 0.00 | 30 | 1017.8 |
| 20260501193228 | 68 | 68 | 1.0 | 5.0 | 0.00 | 0.00 | 0.00 | 33 | 1017.8 |
| 20260501192725 | 67 | 274 | 4.0 | 9.0 | 0.00 | 0.00 | 0.00 | 32 | 1018.0 |
| 20260501192222 | 66 | 309 | 4.0 | 10.0 | 0.00 | 0.00 | 0.00 | 33 | 1018.2 |
| 20260501191719 | 68 | 319 | 1.0 | 3.0 | 0.00 | 0.00 | 0.00 | 33 | 1018.0 |
| 20260501191216 | 68 | 246 | 1.0 | 5.0 | 0.00 | 0.00 | 0.00 | 34 | 1018.2 |
| 20260501190713 | 67 | 135 | 0.0 | 5.0 | 0.00 | 0.00 | 0.00 | 37 | 1018.2 |
| 20260501190208 | 67 | 209 | 2.0 | 3.0 | 0.00 | 0.00 | 0.00 | 37 | 1018.2 |
| 20260501185704 | 66 | 273 | 2.0 | 3.0 | 0.00 | 0.00 | 0.00 | 38 | 1018.2 |
| 20260501185200 | 66 | 270 | 4.0 | 5.0 | 0.00 | 0.00 | 0.00 | 38 | 1018.3 |
| 20260501184657 | 68 | 273 | 2.0 | 5.0 | 0.00 | 0.00 | 0.00 | 37 | 1018.2 |
| 20260501184157 | 67 | 15 | 0.0 | 1.0 | 0.00 | 0.00 | 0.00 | 36 | 1018.4 |
| 20260501183653 | 67 | 203 | 2.0 | 3.0 | 0.00 | 0.00 | 0.00 | 40 | 1018.7 |
| 20260501183150 | 67 | 292 | 3.0 | 5.0 | 0.00 | 0.00 | 0.00 | 40 | 1018.7 |
| 20260501182647 | 66 | 300 | 4.0 | 8.0 | 0.00 | 0.00 | 0.00 | 39 | 1018.7 |
| 20260501182143 | 67 | 168 | 1.0 | 3.0 | 0.00 | 0.00 | 0.00 | 41 | 1018.7 |
| 20260501181641 | 67 | 189 | 4.0 | 6.0 | 0.00 | 0.00 | 0.00 | 37 | 1018.7 |
| 20260501181137 | 66 | 213 | 3.0 | 7.0 | 0.00 | 0.00 | 0.00 | 38 | 1018.7 |
| 20260501180636 | 65 | 282 | 0.0 | 5.0 | 0.00 | 0.00 | 0.00 | 43 | 1019.0 |
| 20260501180131 | 65 | 166 | 0.0 | 5.0 | 0.00 | 0.00 | 0.00 | 44 | 1019.1 |
| 20260501175628 | 65 | 282 | 2.0 | 7.0 | 0.00 | 0.00 | 0.00 | 44 | 1019.0 |
| 20260501175126 | 66 | 247 | 4.0 | 7.0 | 0.00 | 0.00 | 0.00 | 42 | 1019.1 |
| 20260501174622 | 64 | 268 | 3.0 | 5.0 | 0.00 | 0.00 | 0.00 | 44 | 1019.3 |
| 20260501174120 | 65 | 270 | 2.0 | 3.0 | 0.00 | 0.00 | 0.00 | 44 | 1019.2 |
| 20260501173617 | 65 | 268 | 2.0 | 6.0 | 0.00 | 0.00 | 0.00 | 42 | 1019.4 |
| 20260501173114 | 64 | 319 | 0.0 | 6.0 | 0.00 | 0.00 | 0.00 | 44 | 1019.7 |
| 20260501172609 | 66 | 315 | 0.0 | 1.0 | 0.00 | 0.00 | 0.00 | 45 | 1019.3 |
| 20260501172105 | 66 | 171 | 1.0 | 3.0 | 0.00 | 0.00 | 0.00 | 44 | 1019.3 |
| 20260501171601 | 65 | 223 | 0.0 | 1.0 | 0.00 | 0.00 | 0.00 | 45 | 1019.4 |